Location: Caltech
(34.1382°N, 118.1253°W)
Time: 13:23:22
(UTC-07:00)

Cosmos 2219 - Visible Passes

Search period start: 23 September 2014 00:00
Search period end: 03 October 2014 00:00
Orbit: 835 x 859 km, 71.1° (Epoch: 22 September)

Date Brightness Start Highest point End Pass type
(mag) Time Alt. Az. Time Alt. Az. Time Alt. Az.
23 Sep 3.6 19:07:31 10° N 19:12:50 43° ENE 19:18:08 10° SE visible
23 Sep 5.5 20:52:32 10° NW 20:56:36 21° W 21:00:41 10° SSW visible
24 Sep 5.5 20:39:08 10° NW 20:43:16 22° W 20:47:25 10° SSW visible
25 Sep 5.5 20:25:45 10° NW 20:29:56 22° W 20:34:09 10° SSW visible
26 Sep 5.6 20:12:21 10° NW 20:16:36 23° W 20:20:52 10° SSW visible
27 Sep 5.6 19:58:57 10° NW 20:03:16 23° W 20:07:35 10° SSW visible
28 Sep 5.6 19:45:34 10° NW 19:49:56 24° WSW 19:54:19 10° SSW visible
29 Sep 5.7 19:32:11 10° NW 19:36:36 24° WSW 19:41:02 10° SSW visible
30 Sep 5.7 19:18:47 10° NW 19:23:16 25° WSW 19:27:45 10° SSW visible
01 Oct 5.7 19:05:24 10° NW 19:09:55 26° WSW 19:14:27 10° SSW visible
